GW5284 Weather Reports


time (UTC)temp
C
wind
direction
speed
KPH
gust
KPH
rain 1hr
cm
rain 24hr
cm
rain mn
cm
humidity
%
barometer
mb
20260505153020 13 183 3.2 4.8 0.00 0.00 0.00 81 1015.7
20260505152517 13 243 1.6 1.6 0.00 0.00 0.00 81 1015.6
20260505152013 13 211 8.0 9.7 0.00 0.00 0.00 81 1015.8
20260505151508 13 84 1.6 3.2 0.00 0.00 0.00 81 1015.9
20260505151006 13 160 3.2 3.2 0.00 0.00 0.00 82 1015.6
20260505150502 13 180 3.2 3.2 0.00 0.00 0.00 81 1015.6
20260505140432 12 209 4.8 4.8 0.00 0.00 0.00 82 1015.0
20260505124846 12 221 8.0 9.7 0.00 0.00 0.00 83 1014.3
20260505124343 12 160 1.6 1.6 0.00 0.00 0.00 83 1014.4
20260505123839 12 143 6.4 6.4 0.00 0.00 0.00 83 1014.4
20260505123336 12 107 3.2 3.2 0.00 0.00 0.00 83 1014.4
20260505122832 12 173 4.8 6.4 0.00 0.00 0.00 83 1014.3
20260505122329 12 186 4.8 6.4 0.00 0.00 0.00 84 1014.4
20260505121826 12 174 1.6 1.6 0.00 0.00 0.00 84 1014.2
20260505121323 12 169 3.2 3.2 0.00 0.00 0.00 84 1014.2
20260505120819 12 153 1.6 3.2 0.00 0.00 0.00 84 1014.1
20260505120315 12 205 3.2 3.2 0.00 0.00 0.00 84 1014.1
20260505115813 12 168 1.6 3.2 0.00 0.00 0.00 84 1014.1
20260505115311 12 115 0.0 1.6 0.00 0.00 0.00 84 1014.2
20260505114809 12 204 6.4 6.4 0.00 0.00 0.00 84 1014.0
20260505114305 12 163 3.2 4.8 0.00 0.00 0.00 84 1014.2
20260505113802 12 181 1.6 3.2 0.00 0.00 0.00 84 1014.1
20260505113258 12 200 3.2 3.2 0.00 0.00 0.00 84 1014.0
20260505112754 12 279 0.0 0.0 0.00 0.00 0.00 84 1014.2
20260505112253 12 217 3.2 4.8 0.00 0.00 0.00 84 1014.1
20260505111752 12 234 6.4 6.4 0.00 0.00 0.00 84 1013.9
20260505111248 12 234 3.2 4.8 0.00 0.00 0.00 84 1014.1
20260505110744 12 195 3.2 3.2 0.00 0.00 0.00 84 1014.0
20260505110242 12 214 3.2 3.2 0.00 0.00 0.00 84 1013.9
20260505102217 12 195 3.2 4.8 0.00 0.00 0.00 84 1013.7
20260505101716 12 211 4.8 6.4 0.00 0.00 0.00 84 1013.8
20260505101212 12 174 4.8 4.8 0.00 0.00 0.00 84 1013.7
20260505100708 12 244 3.2 4.8 0.00 0.00 0.00 84 1013.8
20260505100205 12 169 6.4 9.7 0.00 0.00 0.00 84 1013.7
20260505095700 12 161 1.6 1.6 0.00 0.00 0.00 85 1013.7
20260505095159 12 204 1.6 1.6 0.00 0.00 0.00 85 1013.5
20260505094654 12 209 0.0 1.6 0.00 0.00 0.00 84 1013.4
20260505094151 12 196 3.2 3.2 0.00 0.00 0.00 85 1013.4
20260505093647 12 172 6.4 6.4 0.00 0.00 0.00 85 1013.5
20260505093145 12 179 6.4 6.4 0.00 0.00 0.00 85 1013.4
20260505092641 12 187 4.8 4.8 0.00 0.00 0.00 85 1013.4
20260505092140 12 218 3.2 3.2 0.00 0.00 0.00 85 1013.5
20260505091637 12 232 3.2 3.2 0.00 0.00 0.00 85 1013.3
20260505091135 12 113 3.2 3.2 0.00 0.00 0.00 85 1013.4
20260505090632 12 187 4.8 4.8 0.00 0.00 0.00 84 1013.4
20260505090131 12 136 3.2 3.2 0.00 0.00 0.00 84 1013.3
20260505085627 12 153 1.6 3.2 0.00 0.00 0.00 85 1013.2
20260505085126 12 211 3.2 3.2 0.00 0.00 0.00 85 1013.2
20260505084623 12 229 4.8 4.8 0.00 0.00 0.00 85 1013.2
20260505084121 12 162 1.6 1.6 0.00 0.00 0.00 85 1013.2
20260505083619 12 197 4.8 4.8 0.00 0.00 0.00 85 1013.1
20260505083115 12 223 3.2 3.2 0.00 0.00 0.00 85 1013.4
20260505082611 12 117 0.0 1.6 0.00 0.00 0.00 86 1013.4
20260505082108 12 198 1.6 1.6 0.00 0.00 0.00 85 1013.1
20260505081604 12 146 0.0 1.6 0.00 0.00 0.00 86 1013.3
20260505081102 12 118 1.6 1.6 0.00 0.00 0.00 86 1013.2
20260505080557 12 228 3.2 4.8 0.00 0.00 0.00 86 1013.3
20260505080054 12 211 1.6 1.6 0.00 0.00 0.00 86 1013.3
20260505075550 12 184 3.2 3.2 0.00 0.00 0.00 86 1013.3
20260505075047 12 59 4.8 6.4 0.00 0.00 0.00 86 1013.1
20260505074544 12 212 4.8 4.8 0.00 0.00 0.00 86 1013.0
20260505074041 12 210 3.2 3.2 0.00 0.00 0.00 86 1012.9
20260505073538 12 175 3.2 3.2 0.00 0.00 0.00 86 1012.7
20260505073037 12 212 3.2 6.4 0.00 0.00 0.00 86 1012.8
20260505072532 12 92 3.2 4.8 0.00 0.00 0.00 86 1012.7
20260505072029 12 114 1.6 3.2 0.00 0.00 0.00 86 1012.7
20260505071524 12 209 4.8 4.8 0.00 0.00 0.00 86 1012.6
20260505071023 12 204 3.2 3.2 0.00 0.00 0.00 86 1012.8
20260505070520 12 184 0.0 0.0 0.00 0.00 0.00 86 1012.8
20260505070016 12 215 3.2 4.8 0.00 0.00 0.00 86 1012.4
20260505065512 12 206 3.2 3.2 0.00 0.00 0.00 86 1012.7
20260505065009 12 213 4.8 4.8 0.00 0.00 0.00 85 1012.4
20260505064505 12 214 3.2 4.8 0.00 0.00 0.00 85 1012.7
20260505064004 12 145 1.6 3.2 0.00 0.00 0.00 85 1012.5
20260505063500 12 179 0.0 0.0 0.00 0.00 0.00 85 1012.5
20260505062956 12 149 1.6 1.6 0.00 0.00 0.00 85 1012.2
20260505062453 12 69 0.0 1.6 0.00 0.00 0.00 85 1012.4
20260505061950 12 177 3.2 3.2 0.00 0.00 0.00 85 1012.1
20260505061449 12 235 1.6 3.2 0.00 0.00 0.00 85 1012.0
20260505060946 12 212 3.2 4.8 0.00 0.00 0.00 84 1012.0
20260505060443 12 165 4.8 4.8 0.00 0.00 0.00 84 1012.0
20260505055939 12 182 3.2 3.2 0.00 0.00 0.00 84 1012.0
20260505055435 12 54 4.8 4.8 0.00 0.00 0.00 84 1011.9
20260505054932 12 155 3.2 4.8 0.00 0.00 0.00 84 1011.8
20260505054429 13 205 0.0 1.6 0.00 0.00 0.00 83 1011.8
20260505053927 13 69 1.6 1.6 0.00 0.00 0.00 83 1011.6
20260505053424 13 159 3.2 3.2 0.00 0.00 0.00 83 1012.0
20260505052921 13 113 3.2 3.2 0.00 0.00 0.00 83 1011.9
20260505052418 13 12 0.0 0.0 0.00 0.00 0.00 82 1011.9
20260505051915 13 174 0.0 1.6 0.00 0.00 0.00 82 1011.9
20260505051412 13 208 4.8 6.4 0.00 0.00 0.00 82 1011.9
20260505050910 13 185 3.2 3.2 0.00 0.00 0.00 82 1011.7
20260505050408 13 120 0.0 0.0 0.00 0.00 0.00 81 1011.7
20260505041336 14 200 3.2 4.8 0.00 0.00 0.00 78 1011.2
20260505040833 14 224 6.4 11.3 0.00 0.00 0.00 77 1011.1
20260505040330 15 212 9.7 14.5 0.00 0.00 0.00 77 1011.3
20260505035827 15 207 4.8 6.4 0.00 0.00 0.00 76 1011.2
20260505035322 15 241 6.4 9.7 0.00 0.00 0.00 75 1011.1
20260505034820 15 211 9.7 14.5 0.00 0.00 0.00 74 1011.0
20260505034316 15 256 1.6 3.2 0.00 0.00 0.00 73 1010.8
20260505033814 16 160 6.4 9.7 0.00 0.00 0.00 72 1010.8
20260505033311 16 217 4.8 4.8 0.00 0.00 0.00 71 1010.8
20260505032809 16 211 3.2 4.8 0.00 0.00 0.00 70 1010.6
20260505032305 16 12 3.2 3.2 0.00 0.00 0.00 70 1010.6
20260505031802 17 206 3.2 4.8 0.00 0.00 0.00 68 1010.6
20260505031258 17 116 4.8 6.4 0.00 0.00 0.00 68 1010.4
20260505030756 17 195 1.6 1.6 0.00 0.00 0.00 67 1010.3
20260505030252 17 252 4.8 6.4 0.00 0.00 0.00 65 1010.4
20260505025747 18 173 4.8 4.8 0.00 0.00 0.00 65 1010.3
20260505025245 18 20 3.2 4.8 0.00 0.00 0.00 64 1010.1
20260505024743 18 211 4.8 6.4 0.00 0.00 0.00 63 1009.9
20260505024240 18 210 9.7 14.5 0.00 0.00 0.00 63 1009.9
20260505023738 18 202 8.0 9.7 0.00 0.00 0.00 62 1010.0
20260505023235 19 67 1.6 3.2 0.00 0.00 0.00 62 1009.9
20260505022732 19 46 1.6 3.2 0.00 0.00 0.00 61 1010.0
20260505022229 20 211 6.4 12.9 0.00 0.00 0.00 61 1009.9
20260505021726 20 230 9.7 12.9 0.00 0.00 0.00 60 1009.9
20260505021223 20 201 8.0 11.3 0.00 0.00 0.00 60 1009.9
20260505020718 20 169 0.0 1.6 0.00 0.00 0.00 60 1009.8
20260505020214 20 237 8.0 9.7 0.00 0.00 0.00 59 1009.8
20260505015712 20 160 3.2 4.8 0.00 0.00 0.00 58 1009.8
20260505015208 20 78 3.2 3.2 0.00 0.00 0.00 58 1009.9
20260505014705 21 285 3.2 4.8 0.00 0.00 0.00 57 1009.8
20260505014203 21 291 3.2 3.2 0.00 0.00 0.00 55 1009.7
20260505013700 22 168 1.6 1.6 0.00 0.00 0.00 54 1009.8
20260505013157 22 260 4.8 6.4 0.00 0.00 0.00 53 1009.9
20260505012655 23 278 3.2 4.8 0.00 0.00 0.00 52 1009.8
20260505012152 23 262 3.2 4.8 0.00 0.00 0.00 51 1009.8
20260505011652 23 138 0.0 1.6 0.00 0.00 0.00 51 1009.7
20260505011150 23 278 0.0 1.6 0.00 0.00 0.00 52 1009.9
20260505010645 24 227 1.6 3.2 0.00 0.00 0.00 51 1009.6
20260505010142 24 226 8.0 9.7 0.00 0.00 0.00 49 1009.7
20260505005638 24 212 1.6 3.2 0.00 0.00 0.00 50 1009.6
20260505005135 23 197 1.6 1.6 0.00 0.00 0.00 51 1009.9
20260505004632 24 253 4.8 6.4 0.00 0.00 0.00 50 1009.9
20260505004129 24 284 3.2 4.8 0.00 0.00 0.00 50 1009.9
20260505003626 24 255 6.4 9.7 0.00 0.00 0.00 49 1009.9
20260505003124 25 229 8.0 12.9 0.00 0.00 0.00 49 1009.8
20260505002619 25 182 3.2 3.2 0.00 0.00 0.00 49 1009.8
20260505002118 25 274 9.7 16.1 0.00 0.00 0.00 47 1009.6
20260505001614 25 73 8.0 9.7 0.00 0.00 0.00 48 1009.7
20260505001112 25 281 1.6 1.6 0.00 0.00 0.00 49 1009.6
20260505000609 25 234 9.7 14.5 0.00 0.00 0.00 48 1009.6
20260505000107 25 281 9.7 12.9 0.00 0.00 0.00 48 1009.5
20260504235603 26 257 8.0 11.3 0.00 0.00 0.00 48 1009.6
20260504235100 25 166 1.6 3.2 0.00 0.00 0.00 49 1009.6
20260504234557 25 199 6.4 6.4 0.00 0.00 0.00 49 1009.5
20260504234054 25 194 3.2 3.2 0.00 0.00 0.00 49 1009.6
20260504233549 25 227 3.2 6.4 0.00 0.00 0.00 50 1009.7
20260504233046 26 237 14.5 16.1 0.00 0.00 0.00 48 1009.6
20260504232543 25 191 3.2 4.8 0.00 0.00 0.00 48 1009.7
20260504232041 25 233 6.4 6.4 0.00 0.00 0.00 48 1009.6
20260504231537 25 155 4.8 6.4 0.00 0.00 0.00 48 1010.0
20260504231033 25 207 1.6 1.6 0.00 0.00 0.00 50 1009.8
20260504230530 25 227 3.2 4.8 0.00 0.00 0.00 48 1010.0
20260504230029 26 186 1.6 3.2 0.00 0.00 0.00 48 1009.9
20260504225525 25 99 1.6 1.6 0.00 0.00 0.00 49 1010.0
20260504225023 25 214 4.8 4.8 0.00 0.00 0.00 49 1009.9
20260504224519 25 8 6.4 6.4 0.00 0.00 0.00 50 1010.0
20260504224016 26 338 4.8 11.3 0.00 0.00 0.00 50 1010.0
20260504223513 25 192 4.8 4.8 0.00 0.00 0.00 50 1010.1
20260504223009 25 130 3.2 4.8 0.00 0.00 0.00 53 1010.0
20260504222506 25 213 3.2 3.2 0.00 0.00 0.00 53 1010.1
20260504222003 25 215 6.4 9.7 0.00 0.00 0.00 50 1010.4
20260504221500 25 140 0.0 0.0 0.00 0.00 0.00 52 1010.4
20260504220957 25 281 1.6 3.2 0.00 0.00 0.00 52 1010.2
20260504220454 25 98 3.2 3.2 0.00 0.00 0.00 50 1010.6
20260504215950 25 180 1.6 1.6 0.00 0.00 0.00 52 1010.6
20260504215447 25 329 1.6 3.2 0.00 0.00 0.00 52 1010.4
20260504214944 25 65 6.4 11.3 0.00 0.00 0.00 51 1010.4
20260504214440 25 137 4.8 4.8 0.00 0.00 0.00 50 1010.5
20260504213937 25 48 3.2 3.2 0.00 0.00 0.00 52 1010.4
20260504213433 25 190 9.7 11.3 0.00 0.00 0.00 51 1010.4
20260504212931 25 190 14.5 16.1 0.00 0.00 0.00 51 1010.7
20260504212426 24 198 4.8 4.8 0.00 0.00 0.00 52 1010.8
20260504211924 25 228 16.1 17.7 0.00 0.00 0.00 49 1010.7
20260504211420 25 203 3.2 4.8 0.00 0.00 0.00 51 1010.7
20260504210918 24 133 4.8 6.4 0.00 0.00 0.00 51 1010.6
20260504210415 25 182 4.8 6.4 0.00 0.00 0.00 50 1010.6
20260504205912 25 128 1.6 3.2 0.00 0.00 0.00 52 1010.5
20260504205409 24 168 3.2 3.2 0.00 0.00 0.00 52 1010.6
20260504204907 23 181 6.4 6.4 0.00 0.00 0.00 52 1010.7
20260504204405 23 149 6.4 6.4 0.00 0.00 0.00 52 1010.6
20260504203905 23 95 1.6 3.2 0.00 0.00 0.00 53 1010.8
20260504203401 23 131 1.6 1.6 0.00 0.00 0.00 53 1010.8
20260504202857 24 217 9.7 11.3 0.00 0.00 0.00 50 1010.8
20260504202354 23 215 3.2 4.8 0.00 0.00 0.00 53 1010.8
20260504201850 23 199 3.2 4.8 0.00 0.00 0.00 53 1011.0
20260504201348 23 164 4.8 4.8 0.00 0.00 0.00 52 1010.9
20260504200845 23 216 6.4 12.9 0.00 0.00 0.00 53 1010.9
20260504200342 23 85 1.6 3.2 0.00 0.00 0.00 52 1011.0
20260504195838 23 182 8.0 11.3 0.00 0.00 0.00 52 1011.0
20260504195334 23 150 1.6 3.2 0.00 0.00 0.00 54 1011.0
20260504194831 23 237 4.8 6.4 0.00 0.00 0.00 53 1010.9
20260504194327 23 172 3.2 4.8 0.00 0.00 0.00 52 1010.8
20260504193823 23 276 6.4 9.7 0.00 0.00 0.00 53 1011.1
20260504193321 23 232 1.6 4.8 0.00 0.00 0.00 54 1010.9
20260504192819 23 65 3.2 4.8 0.00 0.00 0.00 55 1011.1
20260504192317 22 84 1.6 1.6 0.00 0.00 0.00 56 1011.0
20260504191815 23 203 6.4 9.7 0.00 0.00 0.00 54 1010.9
20260504191312 22 156 1.6 1.6 0.00 0.00 0.00 56 1011.1
20260504190808 22 236 8.0 11.3 0.00 0.00 0.00 54 1011.3
20260504190304 22 81 1.6 3.2 0.00 0.00 0.00 57 1011.3
20260504185800 22 208 9.7 11.3 0.00 0.00 0.00 54 1011.3
20260504185258 22 170 1.6 3.2 0.00 0.00 0.00 56 1011.2
20260504184754 22 133 3.2 3.2 0.00 0.00 0.00 57 1011.3
20260504184250 21 138 1.6 1.6 0.00 0.00 0.00 60 1011.5
20260504183746 21 87 4.8 6.4 0.00 0.00 0.00 59 1011.4
20260504183243 21 155 6.4 6.4 0.00 0.00 0.00 57 1011.6
20260504182741 21 350 3.2 3.2 0.00 0.00 0.00 60 1011.5
20260504182238 21 73 1.6 1.6 0.00 0.00 0.00 60 1011.6
20260504181735 21 89 1.6 1.6 0.00 0.00 0.00 58 1011.5
20260504181232 20 109 1.6 1.6 0.00 0.00 0.00 60 1011.5
20260504180731 20 135 1.6 3.2 0.00 0.00 0.00 61 1011.4
20260504180230 20 167 4.8 6.4 0.00 0.00 0.00 61 1011.5
20260504175727 20 338 3.2 3.2 0.00 0.00 0.00 62 1011.4
20260504175223 20 47 3.2 3.2 0.00 0.00 0.00 63 1011.3
20260504174722 20 222 4.8 4.8 0.00 0.00 0.00 61 1011.6
20260504174220 19 182 3.2 3.2 0.00 0.00 0.00 62 1011.5
20260504173715 18 148 3.2 4.8 0.00 0.00 0.00 63 1011.5
20260504173213 18 250 4.8 6.4 0.00 0.00 0.00 63 1011.4
20260504172709 18 140 4.8 4.8 0.00 0.00 0.00 63 1011.5
20260504172205 18 236 9.7 11.3 0.00 0.00 0.00 63 1011.5
20260504171702 18 75 6.4 9.7 0.00 0.00 0.00 64 1011.3
20260504171159 19 225 3.2 3.2 0.00 0.00 0.00 62 1011.3
20260504170655 18 195 3.2 6.4 0.00 0.00 0.00 63 1011.4
20260504170153 18 12 3.2 4.8 0.00 0.00 0.00 64 1011.4
20260504160112 17 220 4.8 6.4 0.00 0.00 0.00 64 1011.1